FW7813 Weather Reports


Display with metric or nautical units.
time (UTC)temp
F
wind
direction
speed
MPH
gust
MPH
rain 1hr
in
rain 24hr
in
rain mn
in
humidity
%
barometer
mb
20260506015529 56 42 2.0 8.0 0.00 0.00 0.00 52 1010.4
20260506015029 56 80 3.0 8.0 0.00 0.00 0.00 51 1010.6
20260506014543 56 0 3.0 9.0 0.00 0.00 0.00 51 1010.6
20260506014028 56 84 1.0 10.0 0.00 0.00 0.00 50 1010.6
20260506013528 56 74 2.0 10.0 0.00 0.00 0.00 50 1010.2
20260506013045 57 40 2.0 11.0 0.00 0.00 0.00 50 1009.7
20260506012529 57 115 3.0 11.0 0.00 0.00 0.00 49 1009.6
20260506012029 57 0 2.0 11.0 0.00 0.00 0.00 49 1009.5
20260506011548 57 327 2.0 10.0 0.00 0.00 0.00 49 1009.5
20260506011032 58 63 2.0 10.0 0.00 0.00 0.00 49 1009.4
20260506010530 58 49 2.0 10.0 0.00 0.00 0.00 49 1009.3
20260506010047 58 78 2.0 9.0 0.00 0.00 0.00 48 1009.2
20260506005527 58 338 2.0 9.0 0.00 0.00 0.00 48 1009.1
20260506005031 58 35 3.0 8.0 0.00 0.00 0.00 48 1008.9
20260506004537 59 79 3.0 8.0 0.00 0.00 0.00 47 1008.9
20260506004029 59 355 2.0 10.0 0.00 0.00 0.00 47 1008.8
20260506003529 59 77 2.0 11.0 0.00 0.00 0.00 46 1008.6
20260506003045 59 61 4.0 11.0 0.00 0.00 0.00 46 1008.6
20260506002532 60 52 3.0 11.0 0.00 0.00 0.00 46 1008.7
20260506002028 60 54 3.0 8.0 0.00 0.00 0.00 45 1008.6
20260506001544 60 76 3.0 11.0 0.00 0.00 0.00 46 1008.6
20260506001029 60 65 3.0 11.0 0.00 0.00 0.00 45 1008.3
20260506000529 60 71 3.0 10.0 0.00 0.00 0.00 45 1008.6
20260506000043 61 28 3.0 11.0 0.00 0.00 0.00 45 1008.6
20260505235528 61 54 3.0 11.0 0.00 0.00 0.00 44 1008.6
20260505235031 61 126 3.0 11.0 0.00 0.00 0.00 44 1008.6
20260505234604 61 59 3.0 11.0 0.00 0.00 0.00 44 1008.6
20260505234028 61 80 3.0 13.0 0.00 0.00 0.00 44 1008.6
20260505233528 61 109 5.0 13.0 0.00 0.00 0.00 44 1008.6
20260505233042 62 92 4.0 11.0 0.00 0.00 0.00 44 1008.6
20260505232529 62 70 3.0 13.0 0.00 0.00 0.00 44 1008.6
20260505232028 62 107 3.0 13.0 0.00 0.00 0.00 44 1008.5
20260505231539 62 105 3.0 13.0 0.00 0.00 0.00 44 1008.5
20260505231029 62 78 4.0 13.0 0.00 0.00 0.00 44 1008.6
20260505230528 62 67 4.0 12.0 0.00 0.00 0.00 44 1008.8
20260505230047 62 82 5.0 12.0 0.00 0.00 0.00 44 1008.8
20260505225529 62 88 3.0 9.0 0.00 0.00 0.00 44 1008.8
20260505225029 62 53 3.0 9.0 0.00 0.00 0.00 44 1008.9
20260505224544 62 85 2.0 9.0 0.00 0.00 0.00 44 1008.9
20260505224028 62 70 4.0 9.0 0.00 0.00 0.00 44 1009.1
20260505223529 63 61 2.0 7.0 0.00 0.00 0.00 44 1009.0
20260505223053 63 38 1.0 11.0 0.00 0.00 0.00 44 1008.9
20260505222528 63 294 3.0 11.0 0.00 0.00 0.00 44 1009.2
20260505222028 63 80 3.0 11.0 0.00 0.00 0.00 43 1009.1
20260505221542 63 28 2.0 11.0 0.00 0.00 0.00 43 1008.9
20260505221029 64 57 3.0 7.0 0.00 0.00 0.00 42 1009.1
20260505220528 63 293 1.0 9.0 0.00 0.00 0.00 42 1009.1
20260505220043 63 80 1.0 11.0 0.00 0.00 0.00 43 1009.3
20260505215529 63 74 5.0 11.0 0.00 0.00 0.00 43 1009.2
20260505215028 63 98 3.0 11.0 0.00 0.00 0.00 42 1009.1
20260505214550 64 59 3.0 11.0 0.00 0.00 0.00 42 1009.3
20260505214030 64 31 3.0 9.0 0.00 0.00 0.00 41 1009.6
20260505213528 64 42 3.0 9.0 0.00 0.00 0.00 41 1009.8
20260505213045 64 25 2.0 9.0 0.00 0.00 0.00 41 1009.9
20260505212531 64 153 2.0 9.0 0.00 0.00 0.00 42 1009.9
20260505212031 64 69 3.0 8.0 0.00 0.00 0.00 41 1009.9
20260505211552 64 34 2.0 5.0 0.00 0.00 0.00 41 1010.0
20260505211028 64 12 1.0 5.0 0.00 0.00 0.00 42 1010.2
20260505210532 63 41 1.0 9.0 0.00 0.00 0.00 43 1010.3
20260505210045 63 88 2.0 9.0 0.00 0.00 0.00 42 1010.2
20260505205529 63 101 0.0 6.0 0.00 0.00 0.00 43 1010.5
20260505205028 63 316 1.0 6.0 0.00 0.00 0.00 43 1010.5
20260505204543 63 77 1.0 8.0 0.00 0.00 0.00 42 1010.6
20260505204028 63 0 2.0 9.0 0.00 0.00 0.00 43 1010.7
20260505203528 63 57 3.0 9.0 0.00 0.00 0.00 43 1010.3
20260505203051 63 65 2.0 10.0 0.00 0.00 0.00 43 1010.5
20260505202528 62 89 2.0 10.0 0.00 0.00 0.00 43 1010.5
20260505202028 62 58 3.0 10.0 0.00 0.00 0.00 43 1010.6
20260505201538 62 70 3.0 10.0 0.00 0.00 0.00 43 1010.9
20260505201028 62 315 1.0 7.0 0.00 0.00 0.00 44 1010.7
20260505200528 62 0 2.0 8.0 0.00 0.00 0.00 44 1010.7
20260505200045 62 102 3.0 8.0 0.00 0.00 0.00 43 1010.7
20260505195528 63 86 1.0 11.0 0.00 0.00 0.00 43 1010.7
20260505195031 62 310 3.0 11.0 0.00 0.00 0.00 43 1010.7
20260505194545 62 51 3.0 11.0 0.00 0.00 0.00 43 1010.5
20260505194029 62 87 3.0 11.0 0.00 0.00 0.00 44 1010.7
20260505193531 62 89 3.0 12.0 0.00 0.00 0.00 43 1010.7
20260505193043 62 78 4.0 12.0 0.00 0.00 0.00 44 1010.6
20260505192528 62 119 3.0 12.0 0.00 0.00 0.00 45 1010.7
20260505192030 61 360 1.0 7.0 0.00 0.00 0.00 45 1010.8
20260505191547 62 39 1.0 6.0 0.00 0.00 0.00 45 1011.1
20260505191029 62 80 2.0 8.0 0.00 0.00 0.00 44 1010.9
20260505190529 61 313 2.0 10.0 0.00 0.00 0.00 45 1010.9
20260505190042 61 333 3.0 11.0 0.00 0.00 0.00 45 1011.1
20260505185528 61 333 3.0 11.0 0.00 0.00 0.00 43 1011.0
20260505185029 61 310 1.0 8.0 0.00 0.00 0.00 45 1010.9
20260505184547 61 40 3.0 10.0 0.00 0.00 0.00 44 1011.2
20260505184029 61 34 1.0 10.0 0.00 0.00 0.00 45 1011.3
20260505183529 60 304 2.0 10.0 0.00 0.00 0.00 46 1011.1
20260505183046 60 360 2.0 10.0 0.00 0.00 0.00 46 1011.1
20260505182531 60 65 3.0 12.0 0.00 0.00 0.00 46 1011.0
20260505182028 60 360 3.0 12.0 0.00 0.00 0.00 46 1010.9
20260505181541 60 43 3.0 10.0 0.00 0.00 0.00 45 1011.2
20260505181031 61 349 2.0 10.0 0.00 0.00 0.00 45 1011.4
20260505180532 61 347 3.0 12.0 0.00 0.00 0.00 46 1011.5
20260505180045 60 326 3.0 12.0 0.00 0.00 0.00 46 1011.3
20260505175529 61 296 3.0 12.0 0.00 0.00 0.00 44 1011.4
20260505175028 62 344 3.0 14.0 0.00 0.00 0.00 43 1011.2
20260505174540 62 41 3.0 14.0 0.00 0.00 0.00 43 1011.2
20260505174031 61 5 5.0 14.0 0.00 0.00 0.00 46 1011.1
20260505173529 60 10 3.0 10.0 0.00 0.00 0.00 46 1011.1
20260505173044 60 344 3.0 10.0 0.00 0.00 0.00 46 1011.0
20260505172529 60 90 3.0 11.0 0.00 0.00 0.00 46 1011.2
20260505172029 60 27 3.0 11.0 0.00 0.00 0.00 46 1011.0
20260505171544 60 52 3.0 11.0 0.00 0.00 0.00 47 1011.0
20260505171028 59 355 2.0 15.0 0.00 0.00 0.00 48 1011.2
20260505170528 59 5 4.0 15.0 0.00 0.00 0.00 47 1011.1
20260505170044 60 315 2.0 11.0 0.00 0.00 0.00 47 1011.0
20260505165529 60 48 4.0 15.0 0.00 0.00 0.00 47 1011.1
20260505165029 60 13 4.0 15.0 0.00 0.00 0.00 48 1011.0
20260505164545 60 299 4.0 15.0 0.00 0.00 0.00 47 1011.0
20260505164028 60 28 3.0 10.0 0.00 0.00 0.00 47 1011.2
20260505163527 59 44 2.0 11.0 0.00 0.00 0.00 47 1011.4
20260505163041 59 311 3.0 11.0 0.00 0.00 0.00 49 1011.3
20260505162528 59 352 3.0 11.0 0.00 0.00 0.00 49 1011.3
20260505162028 59 333 4.0 13.0 0.00 0.00 0.00 48 1011.2
20260505161540 59 355 3.0 13.0 0.00 0.00 0.00 49 1011.2
20260505161031 59 24 3.0 11.0 0.00 0.00 0.00 48 1011.2
20260505160529 59 301 3.0 11.0 0.00 0.00 0.00 48 1011.0
20260505153049 57 76 3.0 9.0 0.00 0.00 0.00 49 1010.5
20260505152528 57 307 3.0 9.0 0.00 0.00 0.00 48 1010.6
20260505152030 57 90 2.0 10.0 0.00 0.00 0.00 49 1010.4
20260505151545 57 319 3.0 12.0 0.00 0.00 0.00 48 1010.2
20260505151028 57 334 2.0 12.0 0.00 0.00 0.00 48 1010.4
20260505150529 57 0 3.0 12.0 0.00 0.00 0.00 48 1010.0
20260505140530 54 59 1.0 11.0 0.00 0.00 0.00 51 1009.8
20260505125032 54 291 3.0 9.0 0.00 0.00 0.00 53 1008.1
20260505124554 54 304 2.0 9.0 0.00 0.00 0.00 52 1008.1
20260505124033 55 299 2.0 8.0 0.00 0.00 0.00 53 1007.9
20260505123532 55 304 3.0 9.0 0.00 0.00 0.00 53 1007.8
20260505123055 55 302 2.0 10.0 0.00 0.00 0.00 53 1007.7
20260505122533 55 360 2.0 10.0 0.00 0.00 0.00 53 1007.8
20260505122032 55 5 2.0 10.0 0.00 0.00 0.00 53 1007.5
20260505121550 55 0 2.0 10.0 0.00 0.00 0.00 54 1007.4
20260505121032 55 306 1.0 10.0 0.00 0.00 0.00 54 1007.4
20260505120536 55 238 3.0 10.0 0.00 0.00 0.00 54 1007.5
20260505120048 55 0 1.0 7.0 0.00 0.00 0.00 54 1007.4
20260505115531 55 0 1.0 8.0 0.00 0.00 0.00 55 1007.4
20260505115031 56 327 2.0 9.0 0.00 0.00 0.00 55 1007.3
20260505114544 56 294 2.0 9.0 0.00 0.00 0.00 55 1007.2
20260505114032 56 351 2.0 9.0 0.00 0.00 0.00 55 1006.9
20260505113533 56 312 1.0 9.0 0.00 0.00 0.00 56 1007.1
20260505113101 56 311 2.0 10.0 0.00 0.00 0.00 56 1007.1
20260505112532 56 0 4.0 10.0 0.00 0.00 0.00 56 1007.0
20260505112033 57 304 3.0 9.0 0.00 0.00 0.00 56 1006.9
20260505111546 57 302 2.0 12.0 0.00 0.00 0.00 56 1006.6
20260505111032 57 345 3.0 12.0 0.00 0.00 0.00 56 1006.7
20260505110533 58 292 3.0 12.0 0.00 0.00 0.00 57 1006.7
20260505102033 61 299 5.0 14.0 0.00 0.00 0.00 50 1005.9
20260505101551 62 289 4.0 14.0 0.00 0.00 0.00 48 1005.8
20260505101032 63 317 5.0 15.0 0.00 0.00 0.00 45 1005.8
20260505100533 64 325 6.0 15.0 0.00 0.00 0.00 41 1005.6
20260505100044 65 323 5.0 11.0 0.00 0.00 0.00 34 1005.6
20260505095530 66 308 4.0 12.0 0.00 0.00 0.00 30 1005.3
20260505095033 66 321 4.0 12.0 0.00 0.00 0.00 29 1005.1
20260505094550 66 259 3.0 9.0 0.00 0.00 0.00 29 1005.1
20260505094032 65 279 1.0 5.0 0.00 0.00 0.00 30 1004.9
20260505093532 64 0 0.0 4.0 0.00 0.00 0.00 32 1004.7
20260505093051 64 230 0.0 4.0 0.00 0.00 0.00 32 1004.8
20260505092532 64 227 0.0 3.0 0.00 0.00 0.00 32 1004.8
20260505092033 64 0 0.0 2.0 0.00 0.00 0.00 33 1004.7
20260505091539 64 0 0.0 2.0 0.00 0.00 0.00 33 1004.7
20260505091032 65 0 0.0 5.0 0.00 0.00 0.00 33 1004.4
20260505090532 65 0 0.0 5.0 0.00 0.00 0.00 32 1004.0
20260505090055 66 0 1.0 5.0 0.00 0.00 0.00 30 1003.8
20260505085535 66 0 0.0 4.0 0.00 0.00 0.00 30 1004.0
20260505085033 66 0 0.0 4.0 0.00 0.00 0.00 29 1003.9
20260505084544 66 258 0.0 4.0 0.00 0.00 0.00 29 1003.9
20260505084031 67 0 0.0 3.0 0.00 0.00 0.00 29 1003.9
20260505083533 67 0 0.0 3.0 0.00 0.00 0.00 30 1003.8
20260505083101 67 0 0.0 5.0 0.00 0.00 0.00 29 1003.8
20260505082532 67 306 0.0 5.0 0.00 0.00 0.00 29 1003.7
20260505082031 67 333 0.0 4.0 0.00 0.00 0.00 28 1003.9
20260505081544 68 263 1.0 7.0 0.00 0.00 0.00 29 1003.9
20260505081033 68 0 1.0 7.0 0.00 0.00 0.00 29 1003.9
20260505080533 68 0 1.0 7.0 0.00 0.00 0.00 28 1003.9
20260505080045 68 266 1.0 6.0 0.00 0.00 0.00 29 1004.0
20260505075530 68 0 1.0 6.0 0.00 0.00 0.00 28 1004.0
20260505075033 68 0 0.0 4.0 0.00 0.00 0.00 28 1004.1
20260505074539 68 0 1.0 6.0 0.00 0.00 0.00 29 1004.3
20260505074032 68 274 1.0 6.0 0.00 0.00 0.00 28 1004.3
20260505073531 68 254 1.0 5.0 0.00 0.00 0.00 28 1004.0
20260505073044 69 0 0.0 4.0 0.00 0.00 0.00 27 1004.1
20260505072532 69 0 0.0 5.0 0.00 0.00 0.00 26 1004.1
20260505072031 69 0 0.0 5.0 0.00 0.00 0.00 26 1004.2
20260505071545 70 210 0.0 6.0 0.00 0.00 0.00 26 1004.0
20260505071032 70 326 1.0 7.0 0.00 0.00 0.00 26 1004.1
20260505070533 70 234 1.0 7.0 0.00 0.00 0.00 26 1004.2
20260505070059 71 295 2.0 8.0 0.00 0.00 0.00 25 1004.3
20260505065533 71 259 1.0 8.0 0.00 0.00 0.00 25 1004.1
20260505065030 71 211 1.0 7.0 0.00 0.00 0.00 25 1004.2
20260505064550 72 0 1.0 11.0 0.00 0.00 0.00 25 1004.1
20260505064032 72 246 1.0 11.0 0.00 0.00 0.00 25 1004.0
20260505063533 72 248 1.0 10.0 0.00 0.00 0.00 24 1004.0
20260505063042 72 249 1.0 10.0 0.00 0.00 0.00 24 1004.3
20260505062532 72 247 2.0 9.0 0.00 0.00 0.00 25 1004.2
20260505062032 72 227 1.0 13.0 0.00 0.00 0.00 24 1004.4
20260505061558 72 314 2.0 13.0 0.00 0.00 0.00 25 1004.3
20260505061034 72 216 1.0 9.0 0.00 0.00 0.00 25 1004.4
20260505060532 73 5 2.0 10.0 0.00 0.00 0.00 24 1004.3
20260505060054 73 342 2.0 10.0 0.00 0.00 0.00 24 1004.1
20260505055532 73 229 1.0 7.0 0.00 0.00 0.00 24 1004.2
20260505055032 73 269 2.0 7.0 0.00 0.00 0.00 23 1004.3
20260505054554 73 0 1.0 7.0 0.00 0.00 0.00 24 1004.2
20260505054032 73 257 1.0 8.0 0.00 0.00 0.00 23 1004.1
20260505053530 73 254 1.0 10.0 0.00 0.00 0.00 23 1004.3
20260505053045 73 5 2.0 12.0 0.00 0.00 0.00 24 1004.2
20260505052529 73 259 1.0 12.0 0.00 0.00 0.00 24 1004.2
20260505052029 73 259 1.0 10.0 0.00 0.00 0.00 24 1004.2
20260505051544 73 275 2.0 11.0 0.00 0.00 0.00 24 1004.3
20260505051030 73 206 3.0 11.0 0.00 0.00 0.00 24 1004.2
20260505050530 73 229 2.0 11.0 0.00 0.00 0.00 24 1004.3
20260505041548 74 355 1.0 9.0 0.00 0.00 0.00 23 1004.4
20260505041029 74 235 2.0 9.0 0.00 0.00 0.00 24 1004.5
20260505040532 74 9 1.0 8.0 0.00 0.00 0.00 23 1004.5
20260505040057 74 226 1.0 8.0 0.00 0.00 0.00 23 1004.5
20260505035533 75 86 2.0 9.0 0.00 0.00 0.00 23 1004.4
20260505035029 75 0 2.0 10.0 0.00 0.00 0.00 23 1004.6
20260505034543 75 221 4.0 10.0 0.00 0.00 0.00 22 1004.6
20260505034029 75 226 2.0 8.0 0.00 0.00 0.00 22 1004.4
20260505033529 75 241 1.0 7.0 0.00 0.00 0.00 21 1004.6
20260505033049 76 286 1.0 9.0 0.00 0.00 0.00 21 1004.5
20260505032529 76 246 1.0 10.0 0.00 0.00 0.00 20 1004.5
20260505032036 76 0 3.0 10.0 0.00 0.00 0.00 20 1004.4
20260505031551 76 254 2.0 11.0 0.00 0.00 0.00 19 1004.3
20260505031030 76 15 2.0 11.0 0.00 0.00 0.00 19 1004.3
20260505030529 76 41 3.0 13.0 0.00 0.00 0.00 18 1004.3
20260505030045 77 220 2.0 13.0 0.00 0.00 0.00 17 1004.3
20260505025532 77 160 2.0 13.0 0.00 0.00 0.00 17 1004.2
20260505025033 77 248 2.0 13.0 0.00 0.00 0.00 17 1004.2
20260505024541 77 130 3.0 11.0 0.00 0.00 0.00 16 1004.1
20260505024029 77 0 3.0 11.0 0.00 0.00 0.00 15 1004.1
20260505023529 77 313 0.0 7.0 0.00 0.00 0.00 15 1003.9
20260505023044 77 252 2.0 7.0 0.00 0.00 0.00 15 1003.9
20260505022529 77 217 1.0 9.0 0.00 0.00 0.00 15 1003.9
20260505022029 78 46 2.0 9.0 0.00 0.00 0.00 15 1003.7
20260505021540 78 0 2.0 8.0 0.00 0.00 0.00 15 1003.7
20260505021032 78 289 1.0 9.0 0.00 0.00 0.00 14 1003.9
20260505020529 78 204 2.0 9.0 0.00 0.00 0.00 14 1003.7
20260505020042 78 242 1.0 14.0 0.00 0.00 0.00 14 1003.7